Home > Weather > Fayetteville > Past weeks

Flag for U.S.A. Weather for the Past 2 Weeks in Fayetteville, North Carolina, U.S.A.

Now
36 °F

Sunny.


Feels Like: 30 °F
Forecast: 28 / 41 °F
Wind: 7 mph from West

Location: Fayetteville Regional Airport

Current Time: Feb 10, 2016 at 11:30:48 AM

Latest Report: Feb 10, 2016 at 10:53 AM


Visibility: 10 mi

Pressure: 29.94 "Hg

Humidity: 40%

Dew point: 14 °F

Location of FayettevilleLocation

Historic Weather in Fayetteville — Graph

°F

Fayetteville Temperature Yesterday

Maximum temperature yesterday: 46 °F (at 12:53 PM)
Minimum temperature yesterday: 33 °F (at 11:53 PM)
Average temperature yesterday: 40 °F

High & Low Weather Summary for the Past Weeks

 TemperatureHumidityPressure
High74 °F (Feb 1, 2:53 PM)100% (Feb 3, 6:53 AM)30.44 "Hg (Feb 3, 6:53 AM)
Low27 °F (Feb 10, 4:53 AM)26% (Jan 30, 12:53 PM)29.60 "Hg (Feb 9, 2:53 AM)
Average48 °F69%30.00 "Hg
* Reported Jan 26 9:53 AM — Feb 10 9:53 AM, Fayetteville, Weather by CustomWeather, © 2016

Note: Actual official high and low records may vary slightly from our data, if they occured in-between our weather recording intervals... More about our weather records

Advertising

Fayetteville Weather History for the Previous 24 Hours

 ConditionsComfort  
Time TempWeatherWind HumidityBarometerVisibility
9:53 AM
Wed, Feb 10
34 °FSunny.10 mph44%29.95 "Hg10 mi
8:53 AM31 °FSunny.10 mph52%29.94 "Hg10 mi
7:53 AM28 °FSunny.9 mph61%29.93 "Hg10 mi
6:53 AM27 °FClear.8 mph63%29.91 "Hg10 mi
5:53 AM27 °FClear.5 mph63%29.91 "Hg10 mi
4:53 AM27 °FClear.6 mph61%29.89 "Hg10 mi
3:53 AM28 °FClear.7 mph56%29.86 "Hg10 mi
2:53 AM28 °FClear.6 mph56%29.85 "Hg10 mi
1:53 AM30 °FPassing clouds.7 mph49%29.86 "Hg10 mi
12:53 AM32 °FPassing clouds.7 mph41%29.85 "Hg10 mi
11:53 PM
Tue, Feb 9
33 °FPassing clouds.10 mph38%29.85 "Hg10 mi
10:53 PM35 °FOvercast.9 mph36%29.84 "Hg10 mi
9:53 PM37 °FOvercast.16 mph39%29.82 "Hg10 mi
8:53 PM39 °FMostly cloudy.16 mph39%29.81 "Hg10 mi
7:53 PM40 °FOvercast.12 mph45%29.79 "Hg10 mi
6:53 PM41 °FOvercast.14 mph41%29.77 "Hg10 mi
5:53 PM41 °FOvercast.12 mph45%29.74 "Hg10 mi
4:53 PM42 °FOvercast.14 mph43%29.70 "Hg10 mi
3:53 PM43 °FOvercast.17 mph40%29.68 "Hg10 mi
2:53 PM44 °FOvercast.17 mph37%29.65 "Hg10 mi
1:53 PM45 °FBroken clouds.21 mph40%29.64 "Hg10 mi
12:53 PM46 °FScattered clouds.17 mph38%29.65 "Hg10 mi
11:53 AM44 °FPassing clouds.18 mph45%29.68 "Hg10 mi
Weather by CustomWeather, © 2016

See weather overviewHow to use our weather pages